TimeEST,TemperatureF,Dew PointF,Humidity,Sea Level PressureIn,VisibilityMPH,Wind Direction,Wind SpeedMPH,Gust SpeedMPH,PrecipitationIn,Events,Conditions,WindDirDegrees,DateUTC
12:40 AM,34.0,30.9,89,29.92,9.0,SE,3.5,-,N/A,,Mostly Cloudy,140,2014-01-18 05:40:00
12:56 AM,37.9,34.0,86,29.92,10.0,SSE,3.5,-,N/A,,Overcast,160,2014-01-18 05:56:00
1:09 AM,37.9,34.0,86,29.91,10.0,SSE,4.6,-,N/A,,Overcast,150,2014-01-18 06:09:00
1:32 AM,39.0,35.1,86,29.91,10.0,South,3.5,-,N/A,,Overcast,170,2014-01-18 06:32:00
1:56 AM,39.0,34.0,82,29.91,10.0,SSE,3.5,-,N/A,,Overcast,160,2014-01-18 06:56:00
2:44 AM,39.9,34.0,79,29.90,10.0,Calm,Calm,-,0.00,,Overcast,0,2014-01-18 07:44:00
2:56 AM,39.9,34.0,79,29.89,10.0,SSE,4.6,-,0.00,,Overcast,150,2014-01-18 07:56:00
3:56 AM,39.9,35.1,83,29.88,8.0,Calm,Calm,-,0.00,Rain,Light Rain,0,2014-01-18 08:56:00
4:47 AM,37.9,35.1,89,29.85,10.0,Calm,Calm,-,0.00,,Overcast,0,2014-01-18 09:47:00
4:56 AM,37.9,36.0,93,29.86,10.0,SE,3.5,-,0.00,,Overcast,140,2014-01-18 09:56:00
5:13 AM,39.9,36.0,86,29.85,10.0,Calm,Calm,-,N/A,,Overcast,0,2014-01-18 10:13:00
5:38 AM,39.9,36.0,86,29.83,10.0,ESE,3.5,-,N/A,,Overcast,110,2014-01-18 10:38:00
5:56 AM,39.9,37.0,89,29.83,10.0,Calm,Calm,-,N/A,,Overcast,0,2014-01-18 10:56:00
6:56 AM,41.0,37.0,86,29.82,10.0,Calm,Calm,-,N/A,,Overcast,0,2014-01-18 11:56:00
7:56 AM,42.1,37.9,85,29.77,7.0,ESE,6.9,-,0.01,Rain,Light Rain,110,2014-01-18 12:56:00
8:17 AM,42.1,39.0,89,29.75,9.0,SE,6.9,-,0.00,Rain,Light Rain,130,2014-01-18 13:17:00
8:56 AM,42.1,37.9,85,29.77,7.0,SE,4.6,-,0.02,Rain,Light Rain,130,2014-01-18 13:56:00
9:56 AM,42.1,37.9,85,29.75,10.0,ESE,5.8,-,0.01,Rain,Light Rain,110,2014-01-18 14:56:00
10:56 AM,42.1,37.0,82,29.71,10.0,ESE,9.2,-,0.00,Rain,Light Rain,120,2014-01-18 15:56:00
11:56 AM,42.1,37.0,82,29.62,10.0,ESE,9.2,19.6,0.00,,Overcast,110,2014-01-18 16:56:00
12:46 PM,42.1,39.0,89,29.57,9.0,SE,10.4,17.3,0.00,Rain,Light Rain,130,2014-01-18 17:46:00
12:56 PM,42.1,39.0,89,29.57,7.0,ESE,8.1,23.0,0.01,Rain,Light Rain,120,2014-01-18 17:56:00
1:56 PM,42.1,39.9,92,29.57,4.0,SSE,8.1,18.4,0.01,Rain,Light Rain,150,2014-01-18 18:56:00
2:56 PM,41.0,39.9,96,29.57,7.0,SSW,8.1,-,0.17,Rain,Light Rain,200,2014-01-18 19:56:00
3:09 PM,42.1,39.0,89,29.57,10.0,SSW,8.1,-,0.00,,Overcast,210,2014-01-18 20:09:00
3:56 PM,42.1,39.9,92,29.58,10.0,WSW,4.6,-,0.01,,Mostly Cloudy,250,2014-01-18 20:56:00
4:56 PM,37.9,36.0,93,29.57,10.0,West,5.8,-,N/A,,Clear,260,2014-01-18 21:56:00
5:56 PM,37.0,34.0,89,29.58,10.0,West,8.1,-,N/A,,Clear,260,2014-01-18 22:56:00
6:32 PM,36.0,35.1,97,29.59,10.0,Calm,Calm,-,N/A,,Mostly Cloudy,0,2014-01-18 23:32:00
6:48 PM,36.0,34.0,93,29.60,9.0,WNW,3.5,-,N/A,,Mostly Cloudy,300,2014-01-18 23:48:00
6:56 PM,36.0,35.1,97,29.60,7.0,Calm,Calm,-,N/A,,Overcast,0,2014-01-18 23:56:00
7:56 PM,35.1,34.0,96,29.62,5.0,WNW,6.9,-,N/A,,Overcast,290,2014-01-19 00:56:00
8:56 PM,35.1,34.0,96,29.64,7.0,West,11.5,-,N/A,,Overcast,260,2014-01-19 01:56:00
9:56 PM,35.1,33.1,92,29.66,5.0,WSW,12.7,-,N/A,,Overcast,250,2014-01-19 02:56:00
10:44 PM,35.1,33.1,92,29.66,8.0,West,6.9,17.3,N/A,,Overcast,270,2014-01-19 03:44:00
10:56 PM,35.1,33.1,92,29.67,8.0,West,8.1,-,N/A,,Overcast,270,2014-01-19 03:56:00
11:12 PM,35.1,33.1,92,29.67,6.0,West,9.2,-,N/A,,Overcast,260,2014-01-19 04:12:00
11:36 PM,35.1,33.1,92,29.67,10.0,West,8.1,-,N/A,,Overcast,270,2014-01-19 04:36:00
11:56 PM,35.1,33.1,92,29.68,10.0,West,6.9,-,N/A,,Overcast,270,2014-01-19 04:56:00